This demonstration page uses our WeatherBlox Daily Observations layout. Learn more.

Left ArrowRight Arrow

34.74481, -87.66753

Hourly Observations for July 29, 2019

Temp ( °F °C ) Dew Point ( °F °C ) Humidity (%) Winds ( mph kmh ) Pressure ( in mb ) Visibility ( mi km ) Precip ( " mm )
1:53 am 01:53 Clear 68 20 66 18.9 93 93 E 3 6 30.08 1019 10 16 0.00 0.00
2:53 am 02:53 Clear 68 20 65 18.3 90 90 Calm 30.07 1018 10 16 0.00 0.00
3:53 am 03:53 Clear 68 20 65 18.3 90 90 Calm 30.06 1018 10 16 0.00 0.00
4:53 am 04:53 Clear 68 20 65 18.3 90 90 Calm 30.06 1018 10 16 0.00 0.00
5:53 am 05:53 Clear 67 19.4 65 18.3 93 93 Calm 30.07 1018 10 16 0.00 0.00
6:53 am 06:53 Sunny 70 21.1 67 19.4 90 90 Calm 30.08 1019 10 16 0.00 0.00
7:53 am 07:53 Sunny 75 23.9 68 20 79 79 Calm 30.08 1019 10 16 0.00 0.00
8:53 am 08:53 Sunny 81 27.2 69 20.6 67 67 WSW 5 7 30.09 1019 10 16 0.00 0.00
9:53 am 09:53 Sunny 85 29.4 68 20 57 57 SW 7 11 30.09 1019 10 16 0.00 0.00
10:53 am 10:53 Sunny 88 31.1 67 19.4 50 50 W 12 19 30.08 1019 10 16 0.00 0.00
11:53 am 11:53 Sunny 89 31.7 65 18.3 45 45 WSW 10 17 30.08 1019 10 16 0.00 0.00
12:53 pm 12:53 Partly Cloudy 90 32.2 66 18.9 45 45 SSW 8 13 30.05 1018 10 16 0.00 0.00
1:53 pm 13:53 Mostly Sunny 91 32.8 64 17.8 41 41 SW 12 19 30.03 1017 10 16 0.00 0.00
2:53 pm 14:53 Mostly Sunny 91 32.8 64 17.8 41 41 SSW 10 17 30.02 1017 10 16 0.00 0.00
3:53 pm 15:53 Sunny 91 32.8 65 18.3 42 42 SSW 8 13 29.99 1016 10 16 0.00 0.00
4:53 pm 16:53 Sunny 90 32.2 66 18.9 45 45 SW 8 13 29.98 1015 10 16 0.00 0.00
5:53 pm 17:53 Sunny 90 32.2 66 18.9 45 45 WSW 8 13 29.97 1015 10 16 0.00 0.00
6:53 pm 18:53 Sunny 86 30 67 19.4 53 53 WSW 6 9 29.97 1015 10 16 0.00 0.00
7:53 pm 19:53 Sunny 83 28.3 68 20 61 61 SW 3 6 29.97 1015 10 16 0.00 0.00
8:53 pm 20:53 Clear 77 25 70 21.1 79 79 Calm 29.98 1015 10 16 0.00 0.00
9:53 pm 21:53 Clear 77 25 70 21.1 79 79 Calm 30.00 1016 10 16 0.00 0.00
10:53 pm 22:53 Clear 75 23.9 71 21.7 88 88 Calm 30.00 1016 10 16 0.00 0.00
11:53 pm 23:53 Clear 76 24.4 70 21.1 82 82 WNW 5 7 30.01 1016 10 16 0.00 0.00

Powered by AerisWeather